Location: ????????
(55.6189°N, 38.3031°E)
Time: 22:26:08
(UTC+00:00)

SL-08 R/B - Pass Details

Date: 15 November 2019
Orbit: 943 x 1008 km, 82.9° (Epoch: 07 December)

Event Time Altitude Azimuth Distance (km) Brightness Sun altitude
Rises 03:58:19 0° 203° (SSW) 3,625 7.5 -8.7°
Reaches altitude 10° 04:00:52 10° 207° (SSW) 2,676 6.7 -8.4°
Maximum altitude 04:06:53 59° 287° (WNW) 1,088 4.5 -7.6°
Drops below altitude 10° 04:12:55 10° 7° (N) 2,677 6.7 -6.8°
Sets 04:15:28 0° 11° (N) 3,626 7.4 -6.5°
